GSAT0220 (GALILEO 24)

Last updated on Mon Dec 15 2025 00:02:41 GMT+0000 (Coordinated Universal Time)

1 43567U 18060D 25347.77876625 -.00000085 00000+0 00000+0 0 9991 2 43567 57.2299 346.7937 0006100 285.5410 74.4106 1.70475925 46015
UTC large
Height (km)
Speed (km/s)
/
Latitude / Longitude
Inclination (degrees)
Orbital Period (minutes)
Azimuth
Elevation
Range (km)
Doppler Factor

Next 0 passes for location: London (51.5072 / 0.1276)

Sorry there are no passes over London.